SCP
0 0 0 0 0 0 0 0 0 0 0 0 0 0 0 0 0 0 0 0 0 0 0 0 0 0 0 0 0 0 0 0 0 0 0 0 0 0 0 0 0 0 0 0
0 0 0 0 0 0 0 0 0 0 0 0 0 0 0 0 0 0 0 0 0 0 0 0 0 0 0 0 0 0 0 0 0 0 0 0 0 0 0 0 0 0 0 0
0 0 0 0 0 0 0 0 0 0 0 0 0 0 0 0 0 0 0 0 0 0 0 0 0 0 0 0 0 1 1 1 1 1 0 0 0 0 0 0 0 0 0 0
0 0 0 0 0 0 0 0 0 0 0 0 0 0 0 0 0 0 0 0 0 0 0 0 0 0 0 0 0 0 0 0 0 0 0 0 0 0 0 0 0 0 0 0
0 0 0 0 0 0 0 0 0 0 0 0 0 0 0 0 0 0 0 0 0 0 0 0 0 0 0 0 0 0 0 0 0 0 0 0 0 0 0 0 0 0 0 0
0 0 0 0 0 0 0 0 0 0 0 0 0 0 0 0 0 0 0 0 0 0 0 0 0 0 0 0 0 0 0 0 0 0 0 0 0 0 0 0 0 0 0 0
0 0 0 0 -0 0 0 0 0 0 0 0 0 0 0 0 0 0 0 0 0 0 0 0 0 0 0 0 0 0 0 0 0 0 0 0 0 0 0 0 0 0 0 0
0 0 0 0 0 0 0 0 0 0 0 0 0 0 0 0 0 0 0 0 0 0 0 0 0 0 0 0 0 0 0 0 0 0 0 0 0 0 0 0 0 0 0 0
0 0 0 0 0 0 0 0 0 0 0 0 0 0 0 0 0 0 0 0 0 0 0 0 0 0 0 0 0 0 0 0 0 0 0 0 0 0 0 0 0 0 0 0
0 0 0 0 0 0 0 0 0 0 0 0 0 0 0 0 0 0 0 0 0 0 0 0 0 0 0 0 0 0 0 0 0 0 0 0 0 0 0 0 0 0 0 0
0 0 0 0 0 0 0 0 0 0 0 0 0 0 0 0 0 0 0 0 0 0 0 0 0 0 0 0 0 0 0 0 0 0 0 0 0 0 0 0 0 0 0 0
0 0 0 0 0 0 0 0 0 0 0 0 0 0 0 0 0 0 0 0 0 0 0 0 0 0 0 0 0 0 0 0 0 0 0 0 0 0 0 0 0 0 0 0
0 0 0 0 0 0 0 0 0 0 0 0 0 0 0 0 0 0 0 0 0 0 0 0 0 0 0 0 0 0 0 0 0 0 0 0 0 0 0 0 0 0 0 0
0 0 0 0 0 0 0 0 0 0 0 0 0 0 0 0 0 0 0 0 0 0 0 0 0 0 0 -0 -0 -0 0 0 0 0 0 0 0 0 0 0 0 0 0 0
0 0 0 0 0 0 0 0 0 0 0 0 0 0 0 0 0 0 0 0 0 0 0 0 0 -0 -0 -0 0 0 0 0 0 0 0 0 0 0 0 0 0 0 0 0
0 0 0 0 0 0 0 0 0 0 0 0 0 0 0 0 0 0 0 0 0 0 0 -0 -0 -0 -0 -0 0 0 0 0 0 0 0 0 0 0 0 0 0 0 0 0
0 0 0 0 0 0 0 0 0 0 0 0 0 0 0 0 0 0 0 0 0 0 0 -0 -0 -0 0 0 0 0 0 0 0 0 0 0 0 0 0 0 0 0 0 0
0 0 0 0 0 0 0 0 0 0 0 0 0 0 0 0 0 0 0 0 0 0 -0 -0 -0 0 0 0 0 0 0 0 0 0 0 0 0 0 0 0 0 0 0 0
0 0 0 0 0 0 0 0 0 0 0 0 0 0 0 0 0 0 0 0 0 0 -0 -0 0 0 0 0 0 0 0 0 0 0 0 0 0 0 0 0 0 0 0 0
0 0 0 0 0 0 0 0 0 0 0 0 0 0 0 0 0 0 0 0 0 0 0 0 0 0 0 0 0 0 0 0 0 0 0 0 0 0 0 0 0 0 0 -0
0 0 0 0 0 0 0 0 0 0 0 0 0 0 0 0 0 0 0 0 0 0 0 0 0 0 0 0 0 0 0 0 0 0 0 -0 -0 0 -0 -0 0 -0 -0 -0
0 0 0 0 0 0 0 0 0 0 0 0 0 0 0 0 0 0 0 0 0 0 0 0 0 0 0 0 0 0 0 0 0 -0 -0 -0 0 0 0 0 -0 -0 -0 -0
0 0 0 0 0 0 0 0 0 0 0 0 0 0 0 0 0 0 0 0 0 0 0 0 0 0 0 0 0 0 0 0 0 -0 -0 -0 -0 0 -0 -0 -0 0 0 -0
0 0 0 0 0 0 0 0 0 0 0 0 0 0 0 0 0 0 0 0 0 0 0 0 0 0 0 0 0 0 0 0 0 0 0 -0 -0 -0 0 0 0 0 0 0
0 0 0 0 0 0 0 0 0 0 0 0 0 0 0 0 0 0 0 0 0 0 0 0 0 0 0 0 0 0 0 0 0 0 0 0 0 0 0 0 0 0 0 0
0 0 0 0 0 0 0 0 0 0 0 0 0 0 0 0 0 0 0 0 0 0 0 0 0 0 0 0 0 0 0 0 0 0 0 0 0 0 0 0 0 0 0 0
Wind_Speed_500mb
5 4 10 9 11 10 1 7 7 4 6 3 5 9 10 10 11 15 19 23 29 32 32 33 30 24 16 7 6 15 16 18 17 9 9 8 7 7 6 9 14 17 16 19
12 15 8 7 4 2 7 10 5 5 1 14 13 11 8 9 13 14 16 23 25 27 32 31 29 27 23 16 12 9 3 4 4 7 11 12 11 13 13 16 24 23 25 27
20 15 5 8 7 5 2 12 5 16 3 13 13 23 20 14 12 13 15 18 21 25 28 29 28 26 21 18 13 8 2 5 8 15 11 15 19 23 23 23 24 27 29 37
16 7 4 5 11 18 17 5 14 19 19 17 7 19 24 20 15 10 8 11 15 20 21 21 22 23 24 22 21 19 20 24 26 27 27 30 28 29 34 37 38 40 40 44
11 6 6 9 11 13 11 14 14 18 22 22 26 14 20 20 18 15 5 4 9 13 18 20 20 20 20 21 23 24 25 27 29 31 36 37 41 49 48 42 44 46 51 48
17 6 8 11 3 6 9 15 15 13 12 19 8 9 8 13 18 14 8 2 7 14 17 18 21 23 25 27 30 33 35 35 33 31 35 42 52 55 65 66 74 55 50 47
10 5 7 12 17 11 16 15 8 8 11 11 6 13 6 10 7 4 4 5 7 14 18 22 27 32 36 40 43 44 44 45 45 46 44 43 44 51 54 44 46 48 48 46
11 14 6 9 11 13 9 13 8 10 11 22 13 11 11 9 7 5 4 9 16 22 28 33 39 42 45 47 48 48 45 47 45 47 49 49 51 52 54 54 52 54 56 54
6 6 9 13 10 10 6 2 9 10 15 15 2 7 20 14 11 7 8 16 23 30 36 41 44 46 48 50 50 51 53 55 55 55 56 55 55 56 58 59 61 62 63 59
5 8 3 6 6 11 12 7 8 4 9 18 11 16 11 12 16 8 19 23 29 37 43 48 48 52 54 52 52 53 56 58 59 59 59 59 59 61 65 68 72 68 64 60
2 4 13 8 6 6 11 8 2 8 9 10 16 9 11 16 17 16 32 40 40 44 50 51 57 57 58 58 58 60 61 61 63 63 62 60 62 66 67 69 65 61 62 63
6 5 9 5 5 2 5 5 7 6 6 13 19 27 11 7 22 24 35 38 44 48 52 57 61 63 63 64 65 67 66 67 65 63 61 64 71 65 67 58 60 60 62 60
7 4 6 9 11 14 14 11 15 10 11 21 18 15 13 15 22 16 36 43 53 57 61 63 64 66 67 69 72 73 72 68 67 60 55 53 53 54 60 57 53 49 50 53
5 7 15 13 13 9 10 16 17 17 13 24 28 40 35 34 34 43 48 50 58 65 66 67 68 69 74 80 78 73 68 61 56 51 52 56 57 57 56 59 55 56 52 55
7 12 13 18 18 17 23 26 23 26 27 29 36 37 35 29 36 49 49 58 63 67 68 70 74 81 87 81 70 63 55 50 53 57 60 65 63 61 59 56 57 54 53 51
8 11 11 20 19 22 28 28 27 25 26 30 31 34 29 44 43 52 52 58 66 66 73 78 86 88 82 72 65 57 57 61 60 65 71 61 62 62 56 56 57 56 56 54
8 7 10 13 3 18 24 18 16 13 18 21 26 32 39 35 45 51 59 63 58 75 81 85 88 83 72 63 61 77 70 67 68 66 64 58 60 55 54 54 53 55 55 50
9 13 8 14 12 14 11 4 5 13 18 22 28 29 29 45 48 56 61 58 71 76 80 86 83 75 65 65 76 73 70 67 61 60 59 57 54 51 55 52 51 52 48 51
19 13 8 8 12 25 21 9 6 3 24 33 18 23 40 46 51 52 53 65 68 70 78 81 74 66 72 75 73 70 66 62 57 60 54 52 51 50 50 52 47 46 45 45
13 15 12 7 10 9 11 13 5 5 13 7 19 31 37 47 27 33 69 70 72 74 78 74 65 69 74 73 69 65 63 62 57 57 52 50 47 45 45 43 42 44 39 38
12 12 22 16 13 14 12 16 9 7 9 26 32 32 38 34 49 65 68 71 75 76 77 67 63 73 73 71 62 58 58 54 52 47 45 41 39 38 37 40 41 40 40 38
13 8 9 9 9 14 20 18 9 12 30 34 31 35 42 49 56 63 68 71 72 78 73 57 71 74 71 61 55 60 57 53 46 44 39 34 33 31 33 36 41 36 35 37
10 11 4 12 5 10 28 17 19 26 32 32 31 37 42 49 58 63 67 69 74 71 57 65 69 71 66 56 58 61 55 49 46 39 34 33 25 26 32 26 26 25 26 25
11 12 9 4 10 23 21 22 26 25 26 26 31 36 41 51 56 61 66 69 71 58 53 64 65 67 66 59 55 51 45 44 32 30 27 27 25 25 22 23 27 20 19 15
6 20 15 20 28 24 20 14 18 19 20 27 31 37 44 51 53 57 64 67 58 48 59 59 62 60 62 57 50 48 40 38 30 23 24 28 20 26 20 24 23 20 16 11
23 18 14 9 3 9 10 10 13 18 25 27 32 39 44 45 49 54 59 59 48 52 56 59 59 57 57 52 45 44 38 35 24 19 32 28 28 27 22 22 19 21 16 12
Wind_Direction_500mb
99 198 55 35 18 30 279 262 266 92 90 215 88 125 93 78 77 70 56 51 46 44 39 37 38 39 42 49 252 225 228 226 219 209 211 243 234 245 257 268 288 307 305 309
155 65 78 75 100 213 262 269 229 201 109 279 179 157 133 113 86 71 60 54 49 46 42 39 42 42 44 47 48 49 42 265 276 289 265 249 254 258 255 269 279 289 294 299
67 81 126 102 89 291 321 304 289 298 257 252 233 201 181 152 130 100 75 59 48 44 40 37 34 34 32 25 21 17 323 251 275 251 291 283 275 277 286 284 288 288 283 295
82 93 60 70 63 336 284 19 293 280 274 289 236 290 192 166 162 149 107 54 34 22 24 25 22 19 18 21 13 5 332 316 312 301 290 282 284 283 278 282 286 282 285 283
97 127 0 30 18 336 12 319 296 288 272 289 231 256 106 174 193 170 168 48 24 9 2 358 359 356 356 358 350 346 342 331 321 312 297 288 281 277 279 285 288 291 290 284
123 112 35 20 3 332 309 261 251 262 258 241 107 263 235 183 237 168 196 278 344 344 339 337 336 334 330 331 329 324 320 313 308 305 300 295 291 287 286 285 284 287 286 280
175 118 110 1 303 192 326 310 307 234 207 280 102 265 308 100 147 275 251 281 316 325 325 324 320 318 314 315 315 315 308 303 298 294 287 282 282 281 285 287 284 282 281 281
276 182 5 9 15 334 354 333 311 302 319 315 236 262 76 93 150 186 264 306 303 318 321 316 312 310 309 308 310 311 309 307 303 295 288 280 278 283 281 284 281 278 279 280
278 150 113 55 30 324 59 347 9 300 265 265 340 209 191 170 187 221 300 314 314 315 313 312 312 310 307 305 304 304 304 302 300 295 290 285 279 280 283 285 285 283 279 275
78 271 178 98 236 71 336 96 227 187 297 311 324 312 310 190 246 240 280 310 313 310 311 311 311 310 307 303 302 302 300 300 299 297 291 287 281 279 283 285 285 284 278 276
73 255 135 205 206 321 169 192 312 302 288 293 309 3 51 316 329 309 314 317 312 314 312 312 312 310 307 304 302 302 301 300 299 296 292 287 284 283 285 286 285 280 278 277
62 295 255 344 104 227 281 279 293 280 262 261 282 292 49 354 315 304 298 307 311 308 310 311 313 312 310 306 304 303 302 299 297 295 289 288 287 286 285 284 285 282 281 277
158 212 284 190 171 191 241 224 255 283 285 279 283 281 186 254 256 279 297 316 314 309 313 316 315 314 312 310 307 303 301 299 297 294 291 289 289 288 286 285 288 287 284 281
182 248 249 270 340 320 244 248 255 263 277 275 282 305 308 320 321 325 322 312 309 314 317 318 318 316 314 312 307 303 301 299 294 295 292 289 287 287 286 283 284 287 287 276
244 262 253 266 278 266 274 278 277 265 268 278 293 302 311 335 326 314 314 318 317 317 319 319 319 318 317 313 309 306 304 299 297 294 292 293 296 296 293 285 288 290 287 275
201 267 275 271 259 269 270 270 269 269 277 282 291 293 329 329 312 321 321 320 315 318 319 317 318 318 317 313 309 307 303 302 301 294 300 297 298 300 295 292 289 283 285 274
217 259 258 281 257 284 270 258 249 271 281 288 290 303 318 320 319 318 322 315 324 324 321 319 318 319 317 312 308 311 314 312 307 305 304 301 301 299 297 292 286 282 285 279
221 226 264 280 287 251 76 71 327 279 291 285 293 306 312 313 314 320 314 331 327 321 320 319 319 317 313 310 317 318 317 315 312 312 310 307 305 298 298 296 292 292 288 284
228 235 261 264 280 285 224 212 213 203 285 295 284 307 312 314 317 313 332 328 322 324 320 319 316 314 311 321 322 320 318 318 313 316 314 308 307 303 298 297 298 296 292 288
196 237 243 233 264 277 84 148 144 297 287 130 285 306 315 319 316 319 330 324 324 324 323 321 316 314 325 326 327 323 320 319 317 321 318 312 304 297 296 297 297 303 295 291
182 211 232 242 247 267 124 159 164 247 304 321 314 310 313 314 317 318 322 323 323 324 324 322 318 328 328 330 329 327 328 325 324 318 319 312 304 302 298 299 302 304 302 298
210 204 214 234 248 251 151 163 214 282 305 305 305 308 311 314 317 320 323 323 326 326 325 324 333 336 338 340 339 335 333 334 333 329 323 319 318 308 309 308 314 308 297 288
235 222 256 213 272 116 187 248 276 287 289 299 305 311 312 315 319 323 323 325 326 325 323 329 339 338 341 345 344 339 337 333 322 327 328 326 326 322 314 316 321 315 316 309
225 209 233 254 229 233 251 260 276 285 287 294 308 312 316 318 321 321 324 325 326 324 323 338 341 341 342 347 343 343 342 346 340 341 344 348 333 341 346 345 338 325 332 319
348 164 234 246 266 266 265 262 284 295 295 301 311 315 320 321 319 322 324 326 323 324 331 340 344 343 343 343 346 352 353 352 354 358 349 351 350 344 350 351 5 8 15 10
201 232 210 237 230 230 281 285 290 292 306 312 315 319 320 320 319 323 324 324 323 323 336 340 342 343 344 345 347 354 358 2 4 6 353 3 8 4 1 4 22 27 35 49
Wind_Speed_850mb
5 4 10 9 11 10 1 7 7 4 6 3 5 9 10 10 11 15 19 23 29 32 32 33 30 24 16 7 6 15 16 18 17 9 9 8 7 7 6 9 14 17 16 19
12 15 8 7 4 2 7 10 5 5 1 14 13 11 8 9 13 14 16 23 25 27 32 31 29 27 23 16 12 9 3 4 4 7 11 12 11 13 13 16 24 23 25 27
20 15 5 8 7 5 2 12 5 16 3 13 13 23 20 14 12 13 15 18 21 25 28 29 28 26 21 18 13 8 2 5 8 15 11 15 19 23 23 23 24 27 29 37
16 7 4 5 11 18 17 5 14 19 19 17 7 19 24 20 15 10 8 11 15 20 21 21 22 23 24 22 21 19 20 24 26 27 27 30 28 29 34 37 38 40 40 44
11 6 6 9 11 13 11 14 14 18 22 22 26 14 20 20 18 15 5 4 9 13 18 20 20 20 20 21 23 24 25 27 29 31 36 37 41 49 48 42 44 46 51 48
17 6 8 11 3 6 9 15 15 13 12 19 8 9 8 13 18 14 8 2 7 14 17 18 21 23 25 27 30 33 35 35 33 31 35 42 52 55 65 66 74 55 50 47
10 5 7 12 17 11 16 15 8 8 11 11 6 13 6 10 7 4 4 5 7 14 18 22 27 32 36 40 43 44 44 45 45 46 44 43 44 51 54 44 46 48 48 46
11 14 6 9 11 13 9 13 8 10 11 22 13 11 11 9 7 5 4 9 16 22 28 33 39 42 45 47 48 48 45 47 45 47 49 49 51 52 54 54 52 54 56 54
6 6 9 13 10 10 6 2 9 10 15 15 2 7 20 14 11 7 8 16 23 30 36 41 44 46 48 50 50 51 53 55 55 55 56 55 55 56 58 59 61 62 63 59
5 8 3 6 6 11 12 7 8 4 9 18 11 16 11 12 16 8 19 23 29 37 43 48 48 52 54 52 52 53 56 58 59 59 59 59 59 61 65 68 72 68 64 60
2 4 13 8 6 6 11 8 2 8 9 10 16 9 11 16 17 16 32 40 40 44 50 51 57 57 58 58 58 60 61 61 63 63 62 60 62 66 67 69 65 61 62 63
6 5 9 5 5 2 5 5 7 6 6 13 19 27 11 7 22 24 35 38 44 48 52 57 61 63 63 64 65 67 66 67 65 63 61 64 71 65 67 58 60 60 62 60
7 4 6 9 11 14 14 11 15 10 11 21 18 15 13 15 22 16 36 43 53 57 61 63 64 66 67 69 72 73 72 68 67 60 55 53 53 54 60 57 53 49 50 53
5 7 15 13 13 9 10 16 17 17 13 24 28 40 35 34 34 43 48 50 58 65 66 67 68 69 74 80 78 73 68 61 56 51 52 56 57 57 56 59 55 56 52 55
7 12 13 18 18 17 23 26 23 26 27 29 36 37 35 29 36 49 49 58 63 67 68 70 74 81 87 81 70 63 55 50 53 57 60 65 63 61 59 56 57 54 53 51
8 11 11 20 19 22 28 28 27 25 26 30 31 34 29 44 43 52 52 58 66 66 73 78 86 88 82 72 65 57 57 61 60 65 71 61 62 62 56 56 57 56 56 54
8 7 10 13 3 18 24 18 16 13 18 21 26 32 39 35 45 51 59 63 58 75 81 85 88 83 72 63 61 77 70 67 68 66 64 58 60 55 54 54 53 55 55 50
9 13 8 14 12 14 11 4 5 13 18 22 28 29 29 45 48 56 61 58 71 76 80 86 83 75 65 65 76 73 70 67 61 60 59 57 54 51 55 52 51 52 48 51
19 13 8 8 12 25 21 9 6 3 24 33 18 23 40 46 51 52 53 65 68 70 78 81 74 66 72 75 73 70 66 62 57 60 54 52 51 50 50 52 47 46 45 45
13 15 12 7 10 9 11 13 5 5 13 7 19 31 37 47 27 33 69 70 72 74 78 74 65 69 74 73 69 65 63 62 57 57 52 50 47 45 45 43 42 44 39 38
12 12 22 16 13 14 12 16 9 7 9 26 32 32 38 34 49 65 68 71 75 76 77 67 63 73 73 71 62 58 58 54 52 47 45 41 39 38 37 40 41 40 40 38
13 8 9 9 9 14 20 18 9 12 30 34 31 35 42 49 56 63 68 71 72 78 73 57 71 74 71 61 55 60 57 53 46 44 39 34 33 31 33 36 41 36 35 37
10 11 4 12 5 10 28 17 19 26 32 32 31 37 42 49 58 63 67 69 74 71 57 65 69 71 66 56 58 61 55 49 46 39 34 33 25 26 32 26 26 25 26 25
11 12 9 4 10 23 21 22 26 25 26 26 31 36 41 51 56 61 66 69 71 58 53 64 65 67 66 59 55 51 45 44 32 30 27 27 25 25 22 23 27 20 19 15
6 20 15 20 28 24 20 14 18 19 20 27 31 37 44 51 53 57 64 67 58 48 59 59 62 60 62 57 50 48 40 38 30 23 24 28 20 26 20 24 23 20 16 11
23 18 14 9 3 9 10 10 13 18 25 27 32 39 44 45 49 54 59 59 48 52 56 59 59 57 57 52 45 44 38 35 24 19 32 28 28 27 22 22 19 21 16 12
Wind_Direction_850mb
99 198 55 35 18 30 279 262 266 92 90 215 88 125 93 78 77 70 56 51 46 44 39 37 38 39 42 49 252 225 228 226 219 209 211 243 234 245 257 268 288 307 305 309
155 65 78 75 100 213 262 269 229 201 109 279 179 157 133 113 86 71 60 54 49 46 42 39 42 42 44 47 48 49 42 265 276 289 265 249 254 258 255 269 279 289 294 299
67 81 126 102 89 291 321 304 289 298 257 252 233 201 181 152 130 100 75 59 48 44 40 37 34 34 32 25 21 17 323 251 275 251 291 283 275 277 286 284 288 288 283 295
82 93 60 70 63 336 284 19 293 280 274 289 236 290 192 166 162 149 107 54 34 22 24 25 22 19 18 21 13 5 332 316 312 301 290 282 284 283 278 282 286 282 285 283
97 127 0 30 18 336 12 319 296 288 272 289 231 256 106 174 193 170 168 48 24 9 2 358 359 356 356 358 350 346 342 331 321 312 297 288 281 277 279 285 288 291 290 284
123 112 35 20 3 332 309 261 251 262 258 241 107 263 235 183 237 168 196 278 344 344 339 337 336 334 330 331 329 324 320 313 308 305 300 295 291 287 286 285 284 287 286 280
175 118 110 1 303 192 326 310 307 234 207 280 102 265 308 100 147 275 251 281 316 325 325 324 320 318 314 315 315 315 308 303 298 294 287 282 282 281 285 287 284 282 281 281
276 182 5 9 15 334 354 333 311 302 319 315 236 262 76 93 150 186 264 306 303 318 321 316 312 310 309 308 310 311 309 307 303 295 288 280 278 283 281 284 281 278 279 280
278 150 113 55 30 324 59 347 9 300 265 265 340 209 191 170 187 221 300 314 314 315 313 312 312 310 307 305 304 304 304 302 300 295 290 285 279 280 283 285 285 283 279 275
78 271 178 98 236 71 336 96 227 187 297 311 324 312 310 190 246 240 280 310 313 310 311 311 311 310 307 303 302 302 300 300 299 297 291 287 281 279 283 285 285 284 278 276
73 255 135 205 206 321 169 192 312 302 288 293 309 3 51 316 329 309 314 317 312 314 312 312 312 310 307 304 302 302 301 300 299 296 292 287 284 283 285 286 285 280 278 277
62 295 255 344 104 227 281 279 293 280 262 261 282 292 49 354 315 304 298 307 311 308 310 311 313 312 310 306 304 303 302 299 297 295 289 288 287 286 285 284 285 282 281 277
158 212 284 190 171 191 241 224 255 283 285 279 283 281 186 254 256 279 297 316 314 309 313 316 315 314 312 310 307 303 301 299 297 294 291 289 289 288 286 285 288 287 284 281
182 248 249 270 340 320 244 248 255 263 277 275 282 305 308 320 321 325 322 312 309 314 317 318 318 316 314 312 307 303 301 299 294 295 292 289 287 287 286 283 284 287 287 276
244 262 253 266 278 266 274 278 277 265 268 278 293 302 311 335 326 314 314 318 317 317 319 319 319 318 317 313 309 306 304 299 297 294 292 293 296 296 293 285 288 290 287 275
201 267 275 271 259 269 270 270 269 269 277 282 291 293 329 329 312 321 321 320 315 318 319 317 318 318 317 313 309 307 303 302 301 294 300 297 298 300 295 292 289 283 285 274
217 259 258 281 257 284 270 258 249 271 281 288 290 303 318 320 319 318 322 315 324 324 321 319 318 319 317 312 308 311 314 312 307 305 304 301 301 299 297 292 286 282 285 279
221 226 264 280 287 251 76 71 327 279 291 285 293 306 312 313 314 320 314 331 327 321 320 319 319 317 313 310 317 318 317 315 312 312 310 307 305 298 298 296 292 292 288 284
228 235 261 264 280 285 224 212 213 203 285 295 284 307 312 314 317 313 332 328 322 324 320 319 316 314 311 321 322 320 318 318 313 316 314 308 307 303 298 297 298 296 292 288
196 237 243 233 264 277 84 148 144 297 287 130 285 306 315 319 316 319 330 324 324 324 323 321 316 314 325 326 327 323 320 319 317 321 318 312 304 297 296 297 297 303 295 291
182 211 232 242 247 267 124 159 164 247 304 321 314 310 313 314 317 318 322 323 323 324 324 322 318 328 328 330 329 327 328 325 324 318 319 312 304 302 298 299 302 304 302 298
210 204 214 234 248 251 151 163 214 282 305 305 305 308 311 314 317 320 323 323 326 326 325 324 333 336 338 340 339 335 333 334 333 329 323 319 318 308 309 308 314 308 297 288
235 222 256 213 272 116 187 248 276 287 289 299 305 311 312 315 319 323 323 325 326 325 323 329 339 338 341 345 344 339 337 333 322 327 328 326 326 322 314 316 321 315 316 309
225 209 233 254 229 233 251 260 276 285 287 294 308 312 316 318 321 321 324 325 326 324 323 338 341 341 342 347 343 343 342 346 340 341 344 348 333 341 346 345 338 325 332 319
348 164 234 246 266 266 265 262 284 295 295 301 311 315 320 321 319 322 324 326 323 324 331 340 344 343 343 343 346 352 353 352 354 358 349 351 350 344 350 351 5 8 15 10
201 232 210 237 230 230 281 285 290 292 306 312 315 319 320 320 319 323 324 324 323 323 336 340 342 343 344 345 347 354 358 2 4 6 353 3 8 4 1 4 22 27 35 49